Weather History for Wheeling, WV

Change the Weather History Date:

Friday, September 6, 2013

  Actual Average Record
Temperature  
Mean Temperature 60 °F 68 °F  
Max Temperature 74 °F 78 °F 91 °F (2007)
Min Temperature 45 °F 58 °F 45 °F (2000)
Degree Days  
Heating Degree Days 5 1  
Month to date heating degree days 8 6  
Since 1 July heating degree days 24 17  
Cooling Degree Days 0    
Month to date cooling degree days 18  
Year to date cooling degree days 653  
Growing Degree Days 8 (Base 50)    
Moisture  
Dew Point 45 °F    
Average Humidity 65    
Maximum Humidity 100    
Minimum Humidity 29    
Precipitation  
Precipitation 0.00 in 0.09 in 0.34 in (1987)
Month to date precipitation 0.37 0.52  
Sea Level Pressure  
Sea Level Pressure 30.24 in    
Wind  
Wind Speed 4 mph (NE)    
Max Wind Speed 12 mph    
Max Gust Speed 14 mph    
Visibility 6 miles    
Events Fog    
T = Trace of Precipitation, MM = Missing Value Source: NWS Daily Summary

Daily Weather History Graph

Daily Weather History Graph

Search for Another Location

Airport:

Trip Planner

Search our weather history database for the weather conditions in past years. The results will help you decide how hot, cold, wet, or windy it might be!

Date:

Astronomy

Sep. 06, 2013 Rise Set
Actual Time 6:55 AM EDT 7:45 PM EDT
Civil Twilight 6:27 AM EDT 8:13 PM EDT
Nautical Twilight 5:54 AM EDT 8:45 PM EDT
Astronomical Twilight 5:20 AM EDT 9:19 PM EDT
Moon 8:06 AM EDT (9/6) 8:09 PM EDT (9/6)
Length of Visible Light 13h 45m
Length of Day
12h 50m
New Moon, 1% of the Moon is Illuminated
Sep 6
New Moon
Sep 12
First Quarter
Sep 19
Full
Sep 26
Last Quarter
Oct 4
New

Hourly Weather History & Observations

Time (EDT) Temp. Windchill Dew Point Humidity Pressure Visibility Wind Dir Wind Speed Gust Speed Precip Events Conditions
12:53 AM 54.0 °F - 45.0 °F 72% 30.24 in 10.0 mi NNE 3.5 mph - N/A   Clear
1:53 AM 52.0 °F - 46.0 °F 80% 30.25 in 10.0 mi NE 5.8 mph - N/A   Clear
2:53 AM 48.0 °F - 46.9 °F 96% 30.25 in 10.0 mi East 3.5 mph - N/A   Clear
3:53 AM 50.0 °F - 46.0 °F 86% 30.25 in 10.0 mi Calm Calm - N/A   Clear
4:53 AM 50.0 °F - 46.0 °F 86% 30.26 in 10.0 mi Calm Calm - N/A   Clear
5:34 AM 46.4 °F - 46.4 °F 100% 30.25 in 2.5 mi Calm Calm - N/A   Scattered Clouds
5:36 AM 46.4 °F - 46.4 °F 100% 30.25 in 1.0 mi Calm Calm - N/A   Mist
5:38 AM 46.4 °F 45.2 °F 44.6 °F 93% 30.25 in 0.5 mi NNW 3.5 mph - N/A Fog Fog
5:53 AM 46.0 °F 44.8 °F 46.0 °F 100% 30.26 in 0.2 mi NNW 3.5 mph - N/A Fog Fog
6:06 AM 46.4 °F - 46.4 °F 100% 30.26 in 0.2 mi Calm Calm - N/A Fog Fog
6:21 AM 46.4 °F - 46.4 °F 100% 30.26 in 0.2 mi Calm Calm - N/A Fog Fog
6:28 AM 44.6 °F - 44.6 °F 100% 30.26 in 0.5 mi Calm Calm - N/A Fog Fog
6:34 AM 44.6 °F - 44.6 °F 100% 30.26 in 1.0 mi Calm Calm - N/A   Mist
6:36 AM 44.6 °F - 44.6 °F 100% 30.26 in 2.0 mi Calm Calm - N/A   Scattered Clouds
6:44 AM 44.6 °F - 44.6 °F 100% 30.26 in 5.0 mi Calm Calm - N/A   Partly Cloudy
6:53 AM 46.0 °F - 45.0 °F 96% 30.27 in 8.0 mi Calm Calm - N/A   Clear
7:21 AM 46.4 °F - 44.6 °F 93% 30.27 in 3.0 mi Calm Calm - N/A   Partly Cloudy
7:23 AM 44.6 °F - 44.6 °F 100% 30.27 in 1.0 mi Calm Calm - N/A   Mist
7:25 AM 44.6 °F - 44.6 °F 100% 30.27 in 0.5 mi Calm Calm - N/A Fog Fog
7:37 AM 46.4 °F - 46.4 °F 100% 30.27 in 0.2 mi Calm Calm - N/A Fog Fog
7:48 AM 46.4 °F - 46.4 °F 100% 30.27 in 1.5 mi Calm Calm - N/A   Partly Cloudy
7:50 AM 46.4 °F - 46.4 °F 100% 30.27 in 3.0 mi Calm Calm - N/A   Partly Cloudy
7:53 AM 46.9 °F - 46.0 °F 97% 30.29 in 4.0 mi Calm Calm - N/A   Clear
8:53 AM 53.1 °F - 48.9 °F 86% 30.29 in 10.0 mi ENE 3.5 mph - N/A   Clear
9:53 AM 59.0 °F - 46.9 °F 64% 30.29 in 10.0 mi East 5.8 mph - N/A   Clear
10:53 AM 62.1 °F - 45.0 °F 53% 30.28 in 10.0 mi East 8.1 mph - N/A   Clear
11:53 AM 64.9 °F - 43.0 °F 45% 30.27 in 10.0 mi Variable 6.9 mph - N/A   Clear
12:53 PM 68.0 °F - 43.0 °F 40% 30.25 in 10.0 mi East 8.1 mph - N/A   Clear
1:53 PM 71.1 °F - 41.0 °F 34% 30.24 in 10.0 mi NNE 8.1 mph - N/A   Clear
2:53 PM 72.0 °F - 42.1 °F 34% 30.21 in 10.0 mi NNE 5.8 mph - N/A   Clear
3:53 PM 73.0 °F - 43.0 °F 34% 30.19 in 10.0 mi NE 6.9 mph - N/A   Clear
4:53 PM 73.0 °F - 39.9 °F 30% 30.18 in 10.0 mi NNE 5.8 mph - N/A   Clear
5:53 PM 72.0 °F - 42.1 °F 34% 30.18 in 10.0 mi North 3.5 mph - N/A   Clear
6:53 PM 71.1 °F - 44.1 °F 38% 30.17 in 10.0 mi North 4.6 mph - N/A   Clear
7:53 PM 66.0 °F - 42.1 °F 42% 30.17 in 10.0 mi East 3.5 mph - N/A   Clear
8:53 PM 64.0 °F - 43.0 °F 46% 30.16 in 10.0 mi Calm Calm - N/A   Clear
9:53 PM 61.0 °F - 44.1 °F 54% 30.16 in 10.0 mi Calm Calm - N/A   Clear
10:53 PM 59.0 °F - 46.9 °F 64% 30.16 in 10.0 mi Calm Calm - N/A   Clear
11:53 PM 55.9 °F - 46.9 °F 72% 30.15 in 10.0 mi Calm Calm - N/A   Clear